| time (UTC) | temp F | wind direction | speed knots | gust knots | rain 1hr in | rain 24hr in | rain mn in | humidity % | barometer mb |
| 20260505121529 | 53 | 300 | 0.0 | 0.0 | 0.00 | 0.00 | 0.00 | 93 | 1012.7 |
| 20260505120015 | 51 | 300 | 0.0 | 0.0 | 0.00 | 0.00 | 0.00 | 92 | 1012.7 |
| 20260505114514 | 50 | 300 | 0.0 | 0.0 | 0.00 | 0.00 | 0.00 | 91 | 1012.7 |
| 20260505113011 | 49 | 300 | 0.0 | 0.0 | 0.00 | 0.00 | 0.00 | 89 | 1012.5 |
| 20260505111506 | 50 | 300 | 0.0 | 0.0 | 0.00 | 0.00 | 0.00 | 88 | 1012.5 |
| 20260505101558 | 52 | 190 | 0.0 | 0.0 | 0.00 | 0.00 | 0.00 | 86 | 1012.0 |
| 20260505100132 | 52 | 191 | 0.0 | 1.7 | 0.00 | 0.00 | 0.00 | 85 | 1011.9 |
| 20260505094552 | 53 | 190 | 0.0 | 1.7 | 0.00 | 0.00 | 0.00 | 84 | 1011.9 |
| 20260505093053 | 53 | 190 | 0.0 | 0.0 | 0.00 | 0.00 | 0.00 | 82 | 1012.1 |
| 20260505091611 | 54 | 190 | 0.0 | 0.0 | 0.00 | 0.00 | 0.00 | 81 | 1012.1 |
| 20260505090056 | 55 | 190 | 0.0 | 0.0 | 0.00 | 0.00 | 0.00 | 79 | 1012.2 |
| 20260505084545 | 56 | 190 | 0.0 | 0.0 | 0.00 | 0.00 | 0.00 | 77 | 1012.0 |
| 20260505083048 | 57 | 190 | 0.0 | 0.0 | 0.00 | 0.00 | 0.00 | 75 | 1011.8 |
| 20260505081542 | 58 | 190 | 0.0 | 0.0 | 0.00 | 0.00 | 0.00 | 74 | 1011.6 |
| 20260505080047 | 59 | 191 | 0.0 | 0.9 | 0.00 | 0.00 | 0.00 | 73 | 1011.4 |
| 20260505074540 | 59 | 173 | 0.0 | 4.3 | 0.00 | 0.00 | 0.00 | 71 | 1011.2 |
| 20260505073043 | 60 | 201 | 0.0 | 5.2 | 0.00 | 0.00 | 0.00 | 71 | 1011.2 |
| 20260505071541 | 60 | 178 | 0.0 | 2.6 | 0.00 | 0.00 | 0.00 | 72 | 1011.3 |
| 20260505070037 | 59 | 194 | 0.0 | 2.6 | 0.00 | 0.00 | 0.00 | 71 | 1011.4 |
| 20260505064534 | 60 | 200 | 0.0 | 1.7 | 0.00 | 0.00 | 0.00 | 71 | 1011.5 |
| 20260505063044 | 60 | 193 | 0.0 | 4.3 | 0.00 | 0.00 | 0.00 | 69 | 1011.5 |
| 20260505061535 | 61 | 192 | 0.0 | 3.5 | 0.00 | 0.00 | 0.00 | 68 | 1011.6 |
| 20260505060032 | 62 | 194 | 0.0 | 7.0 | 0.00 | 0.00 | 0.00 | 67 | 1011.4 |
| 20260505054541 | 62 | 202 | 1.7 | 6.1 | 0.00 | 0.00 | 0.00 | 66 | 1011.2 |
| 20260505053026 | 62 | 158 | 1.7 | 7.0 | 0.00 | 0.00 | 0.00 | 69 | 1011.1 |
| 20260505051534 | 58 | 203 | 0.9 | 5.2 | 0.00 | 0.00 | 0.00 | 79 | 1011.0 |
| 20260505041512 | 56 | 188 | 0.0 | 0.0 | 0.00 | 0.00 | 0.00 | 84 | 1011.0 |
| 20260505040011 | 56 | 188 | 0.0 | 0.0 | 0.00 | 0.00 | 0.00 | 84 | 1011.1 |
| 20260505034511 | 56 | 188 | 0.0 | 0.0 | 0.00 | 0.00 | 0.00 | 84 | 1011.1 |
| 20260505033010 | 57 | 188 | 0.0 | 0.0 | 0.00 | 0.00 | 0.00 | 84 | 1011.1 |
| 20260505031522 | 57 | 188 | 0.0 | 0.0 | 0.00 | 0.00 | 0.00 | 84 | 1011.1 |
| 20260505030009 | 57 | 188 | 0.0 | 0.0 | 0.00 | 0.00 | 0.00 | 83 | 1011.1 |
| 20260505024509 | 57 | 188 | 0.0 | 0.0 | 0.00 | 0.00 | 0.00 | 83 | 1011.3 |
| 20260505023007 | 58 | 189 | 0.0 | 0.0 | 0.00 | 0.00 | 0.00 | 82 | 1011.3 |
| 20260505021508 | 59 | 189 | 0.0 | 0.0 | 0.00 | 0.00 | 0.00 | 81 | 1011.3 |
| 20260505020006 | 60 | 188 | 0.0 | 0.0 | 0.00 | 0.00 | 0.00 | 79 | 1011.3 |
| 20260505014513 | 61 | 188 | 0.0 | 0.0 | 0.00 | 0.00 | 0.00 | 77 | 1011.1 |
| 20260505013005 | 62 | 188 | 0.0 | 0.0 | 0.00 | 0.00 | 0.00 | 75 | 1011.1 |
| 20260505011509 | 63 | 189 | 0.0 | 0.0 | 0.00 | 0.00 | 0.00 | 74 | 1011.0 |
| 20260505010012 | 65 | 188 | 0.0 | 0.0 | 0.00 | 0.00 | 0.00 | 73 | 1010.9 |
| 20260505004505 | 66 | 188 | 0.0 | 0.0 | 0.00 | 0.00 | 0.00 | 72 | 1010.7 |
| 20260505003004 | 67 | 188 | 0.0 | 0.0 | 0.00 | 0.00 | 0.00 | 72 | 1010.6 |
| 20260505001504 | 67 | 188 | 0.0 | 0.0 | 0.00 | 0.00 | 0.00 | 72 | 1010.6 |
| 20260505000005 | 68 | 188 | 0.0 | 0.0 | 0.00 | 0.00 | 0.00 | 72 | 1010.5 |
| 20260504234503 | 70 | 189 | 0.0 | 0.0 | 0.00 | 0.00 | 0.00 | 72 | 1010.4 |
| 20260504233002 | 71 | 188 | 0.0 | 0.0 | 0.00 | 0.00 | 0.00 | 69 | 1010.4 |
| 20260504231501 | 72 | 188 | 0.0 | 0.0 | 0.00 | 0.00 | 0.00 | 63 | 1010.4 |
| 20260504230002 | 73 | 188 | 0.0 | 0.0 | 0.00 | 0.00 | 0.00 | 60 | 1010.4 |
| 20260504224505 | 73 | 188 | 0.0 | 6.1 | 0.00 | 0.00 | 0.00 | 55 | 1010.5 |
| 20260504223112 | 73 | 196 | 0.0 | 5.2 | 0.00 | 0.00 | 0.00 | 59 | 1010.5 |
| 20260504221600 | 74 | 224 | 0.0 | 7.0 | 0.00 | 0.00 | 0.00 | 54 | 1010.5 |
| 20260504214559 | 75 | 207 | 2.6 | 10.4 | 0.00 | 0.00 | 0.00 | 49 | 1010.4 |
| 20260504213103 | 76 | 223 | 4.3 | 8.7 | 0.00 | 0.00 | 0.00 | 47 | 1010.4 |
| 20260504211601 | 77 | 182 | 3.5 | 7.8 | 0.00 | 0.00 | 0.00 | 47 | 1010.5 |
| 20260504204555 | 77 | 166 | 4.3 | 8.7 | 0.00 | 0.00 | 0.00 | 48 | 1010.8 |
| 20260504203050 | 77 | 304 | 0.0 | 8.7 | 0.00 | 0.00 | 0.00 | 50 | 1011.0 |
| 20260504201550 | 77 | 234 | 1.7 | 7.8 | 0.00 | 0.00 | 0.00 | 47 | 1011.1 |
| 20260504200058 | 77 | 178 | 2.6 | 8.7 | 0.00 | 0.00 | 0.00 | 50 | 1011.4 |
| 20260504194545 | 77 | 217 | 3.5 | 9.6 | 0.00 | 0.00 | 0.00 | 50 | 1011.6 |
| 20260504193045 | 77 | 180 | 1.7 | 7.8 | 0.00 | 0.00 | 0.00 | 50 | 1011.9 |
| 20260504191542 | 76 | 171 | 1.7 | 7.0 | 0.00 | 0.00 | 0.00 | 48 | 1012.2 |
| 20260504190040 | 75 | 163 | 1.7 | 7.0 | 0.00 | 0.00 | 0.00 | 49 | 1012.4 |
| 20260504184540 | 76 | 289 | 0.0 | 7.8 | 0.00 | 0.00 | 0.00 | 53 | 1012.5 |
| 20260504183037 | 76 | 204 | 0.0 | 6.1 | 0.00 | 0.00 | 0.00 | 51 | 1012.8 |
| 20260504181532 | 74 | 217 | 0.0 | 6.1 | 0.00 | 0.00 | 0.00 | 54 | 1013.0 |
| 20260504180028 | 73 | 161 | 4.3 | 7.8 | 0.00 | 0.00 | 0.00 | 53 | 1013.3 |
| 20260504174525 | 72 | 187 | 4.3 | 9.6 | 0.00 | 0.00 | 0.00 | 53 | 1013.4 |
| 20260504173021 | 71 | 213 | 0.9 | 6.1 | 0.00 | 0.00 | 0.00 | 54 | 1013.7 |
| 20260504171517 | 70 | 123 | 2.6 | 10.4 | 0.00 | 0.00 | 0.00 | 54 | 1014.0 |